Scott AFB/Midamerica Airport
KBLV : now visible

Airfield :











YOU CAN JOIN US ON...

 
LOGIN :

Register | Disclaimer

   EN    FR    IT 

 









Legend :    VFR   Marginal VFR   IFR   Intensive IFR   Very Intensive IFR
Visi :
Ceiling :
>= 8 km
>= 3000ft
5 to 8 km
1000 to 3000 ft
1500m to 5 km
500 to 1000 ft
800 to 1500m
200 to 500 ft
< 800m
< 200 ft
Symbols :   Thunderstorms  Fog  Heavy snow  Heavy precipitations  Wind > 20 kt






- Airport Elevation : 459 ft


KBLV - Scott AFB/Midamerica

CURRENT METAR :
  • 250356Z AUTO 04005KT 10SM OVC055 09/03 A3010 RMK AO2 SLP197 T00870033 $

EXPIRED METARs :
  • 250256Z AUTO 03005KT 10SM BKN055 OVC080 09/03 A3010 RMK AO2 SLP198 T00890031 50001 $
  • 250156Z AUTO 04004KT 10SM BKN060 OVC080 09/03 A3011 RMK AO2 SLP201 T00920032 $

TAF TAF KBLV
Valid from the 25 at 00:00 until the 26 at 06:00 UTC


250000Z 2500/2606 08006KT 9999 OVC030 QNH3006INS TX10/2520Z TN05/2512Z
KZKC FIR / North America



MET'MAP, your aeronautical weather chart ! - Copyright ORBIFLY December 2007 - Disclaimer

ORBIFLY MET'MAP TEAM :

Programming & Development : Alexandra Zaïnal
Concept & original design : Baudouin d'Aumeries
Assistance for programming : Marc-Olivier Méhu
Technical & hardware support : Manuel Goepfert

Contact : metmap@orbifly.com




SOURCES & CREDITS :

   NOAA       Earth
Advisory